Back to catalog

RADUGA 16

AliveMilitaryGEO
NORAD 15946·PAYLOAD·🇷🇺 Russia

Launched Aug 8, 1985 from Baikonur Cosmodrome

Loading…

TLE

FreshSource: Space-Track

Epoch: Sep 14, 2026, 11:38 UTC

1 15946U 85070A   26257.48530929  .00000112  00000-0  00000-0 0  9991
2 15946   9.2646 316.2855 0003004 296.4480 119.9755  1.00334966123122

Track RADUGA 16 in real time with AllMySat

Download on the App Store